Snowfall_Accumulation
0.0 0.0 0.0 0.0 0.0 0.0 0.0 0.0 0.0 0.0 0.0 0.0 0.0 0.0 0.0 0.0 0.0 0.0 0.0 0.0 0.0 0.0 0.0 0.0 0.0 0.0 0.0 0.0 0.0 0.0 0.0 0.0 0.0 0.0 0.0 0.0 0.0 0.0 0.0 0.0 0.0 0.0 0.0 0.0 0.0 0.0 0.0
0.0 0.0 0.0 0.0 0.0 0.0 0.0 0.0 0.0 0.0 0.0 0.0 0.0 0.0 0.0 0.0 0.0 0.0 0.0 0.0 0.0 0.0 0.0 0.0 0.0 0.0 0.0 0.0 0.0 0.0 0.0 0.0 0.0 0.0 0.0 0.0 0.0 0.0 0.0 0.0 0.0 0.0 0.0 0.0 0.0 0.0 0.0
0.0 0.0 0.0 0.0 0.0 0.0 0.0 0.0 0.0 0.0 0.0 0.0 0.0 0.0 0.0 0.0 0.0 0.0 0.0 0.0 0.0 0.0 0.0 0.0 0.0 0.0 0.0 0.0 0.0 0.0 0.0 0.0 0.0 0.0 0.0 0.0 0.0 0.0 0.0 0.0 0.0 0.0 0.0 0.0 0.0 0.0 0.0
0.0 0.0 0.0 0.0 0.0 0.0 0.0 0.0 0.0 0.0 0.0 0.0 0.0 0.0 0.0 0.0 0.0 0.0 0.0 0.0 0.0 0.0 0.0 0.0 0.0 0.0 0.0 0.0 0.0 0.0 0.0 0.0 0.0 0.0 0.0 0.0 0.0 0.0 0.0 0.0 0.0 0.0 0.0 0.0 0.0 0.0 0.0
0.0 0.0 0.0 0.0 0.0 0.0 0.0 0.0 0.0 0.0 0.0 0.0 0.0 0.0 0.0 0.0 0.0 0.0 0.0 0.0 0.0 0.0 0.0 0.0 0.0 0.0 0.0 0.0 0.0 0.0 0.0 0.0 0.0 0.0 0.0 0.0 0.0 0.0 0.0 0.0 0.0 0.0 0.0 0.0 0.0 0.0 0.0
0.0 0.0 0.0 0.0 0.0 0.0 0.0 0.0 0.0 0.0 0.0 0.0 0.0 0.0 0.0 0.0 0.0 0.0 0.0 0.0 0.0 0.0 0.0 0.0 0.0 0.1 0.0 0.0 0.0 0.0 0.0 0.0 0.0 0.0 0.0 0.0 0.0 0.0 0.0 0.0 0.0 0.0 0.0 0.0 0.0 0.0 0.0
0.0 0.0 0.0 0.0 0.0 0.0 0.0 0.0 0.0 0.0 0.0 0.0 0.0 0.0 0.0 0.0 0.0 0.0 0.0 0.0 0.0 0.0 0.0 0.0 0.0 0.0 0.0 0.0 0.0 0.0 0.0 0.0 0.0 0.0 0.0 0.0 0.0 0.0 0.0 0.0 0.0 0.0 0.0 0.0 0.0 0.0 0.0
0.0 0.0 0.0 0.0 0.0 0.0 0.0 0.0 0.0 0.0 0.0 0.0 0.0 0.0 0.0 0.0 0.0 0.0 0.0 0.0 0.0 0.0 0.7 0.0 0.0 0.0 0.0 0.0 0.0 0.0 0.0 0.0 0.0 0.0 0.0 0.0 0.2 0.0 0.0 0.0 0.0 0.0 0.2 0.0 0.0 0.0 0.0
0.0 0.0 0.0 0.0 0.0 0.0 0.0 0.0 0.0 0.0 0.0 0.0 0.0 0.0 0.0 0.0 0.0 0.0 0.0 0.0 0.0 0.0 1.6 0.0 0.0 0.0 0.0 0.0 0.0 0.0 0.0 0.0 0.0 0.0 0.0 0.3 0.0 0.0 0.0 0.0 0.0 0.0 0.0 0.0 0.0 0.0 0.0
0.0 0.0 0.0 0.0 0.0 0.0 0.0 0.0 0.0 0.0 0.0 0.0 0.0 0.0 0.0 0.0 0.0 0.0 0.0 0.0 0.0 0.0 3.6 0.0 0.0 0.0 0.0 0.0 0.0 0.0 0.0 0.0 0.0 0.0 0.6 0.7 0.0 0.2 0.0 0.0 0.0 0.4 0.0 0.0 0.1 0.6 0.9
0.0 0.0 0.0 0.0 0.0 0.0 0.0 0.0 0.0 0.0 0.0 0.0 0.0 0.0 0.0 0.0 0.0 0.0 0.0 0.0 0.0 0.0 4.7 0.0 0.0 0.0 0.0 0.0 0.0 0.0 0.0 0.0 0.0 0.0 1.4 1.6 0.0 2.2 0.8 0.0 0.0 0.2 0.0 0.0 0.0 0.1 0.2
0.0 0.0 0.0 0.0 0.0 0.0 0.0 0.0 0.0 0.0 0.0 0.0 0.0 0.0 0.0 0.0 0.0 0.0 0.0 0.0 0.0 5.9 3.4 0.0 0.1 1.0 0.0 0.0 0.0 0.0 0.0 0.0 0.0 0.0 0.0 0.3 0.0 0.0 0.0 0.0 0.0 0.0 0.0 0.0 0.0 0.4 1.8
0.0 0.0 0.0 0.0 0.0 0.0 0.0 0.0 0.0 0.0 0.0 0.0 0.0 0.0 0.0 0.0 0.0 0.0 0.0 0.0 6.1 4.6 0.0 0.2 0.3 2.4 1.2 0.7 1.6 0.0 0.0 0.0 0.0 0.3 0.4 0.0 0.0 0.0 0.0 0.0 0.0 0.4 0.2 0.9 2.1 1.8 0.4
0.0 0.0 0.0 0.0 0.0 0.0 0.0 0.0 0.0 0.0 0.0 0.0 0.0 0.0 0.0 0.0 0.0 0.0 0.0 4.2 8.1 1.4 0.1 0.0 0.6 2.2 1.6 1.6 2.1 0.0 0.0 0.0 0.0 0.0 0.0 0.4 1.7 0.0 0.0 0.0 0.8 0.0 0.1 0.0 2.9 1.5 1.0
0.0 0.0 0.0 0.0 0.0 0.0 0.0 0.0 0.0 0.0 0.0 0.0 0.0 0.0 0.0 0.0 0.0 0.0 0.5 9.5 1.7 1.4 0.0 0.0 0.0 0.7 1.0 0.8 4.0 5.1 3.7 0.5 0.0 0.0 1.9 1.2 1.4 0.0 0.0 0.0 0.0 0.2 0.6 0.0 1.6 1.5 2.2
0.0 0.0 0.0 0.0 0.0 0.0 0.0 0.0 0.0 0.0 0.0 0.0 0.0 0.0 0.0 0.0 0.0 0.0 8.5 5.8 0.0 0.1 0.0 0.0 0.0 0.1 1.0 0.8 1.2 6.9 3.1 1.6 0.1 0.0 0.0 0.7 0.9 0.0 0.0 0.0 0.0 0.0 0.0 0.3 0.9 4.2 2.9
0.0 0.0 0.0 0.0 0.0 0.0 0.0 0.0 0.0 0.0 0.0 0.0 0.0 1.9 0.0 0.0 0.0 0.0 17.2 2.1 0.0 0.0 0.0 0.0 0.1 0.4 0.1 0.5 0.4 3.4 3.4 2.0 0.0 0.0 0.0 0.0 1.3 0.3 0.0 2.0 0.0 0.3 0.4 0.7 1.6 1.8 3.6
0.0 0.0 0.0 0.0 0.0 0.0 0.0 0.0 0.0 0.0 0.0 0.0 0.0 15.4 0.0 0.0 11.8 11.8 4.7 0.2 0.0 0.0 0.0 0.2 0.0 0.0 1.0 1.3 0.5 0.2 1.9 0.5 0.0 0.0 0.7 0.0 0.2 0.8 0.0 0.0 0.0 0.0 0.2 0.3 3.2 2.6 3.5
0.0 0.0 0.0 0.0 0.0 0.0 0.0 0.0 0.0 0.0 0.0 0.0 4.2 5.1 0.0 0.0 13.0 6.2 0.7 0.9 0.0 0.0 0.0 0.2 0.6 0.4 0.0 1.3 0.6 1.5 0.7 0.0 0.0 0.0 1.2 0.0 1.3 1.2 0.8 0.0 0.0 0.1 0.2 1.0 2.1 2.1 4.2
0.0 0.0 0.0 0.0 0.0 0.0 0.0 0.0 0.0 0.0 0.0 0.0 0.1 32.7 0.0 0.0 0.9 1.7 2.2 1.5 2.1 0.0 0.0 0.0 0.1 0.0 0.1 0.3 0.2 0.2 1.4 0.0 0.0 0.0 0.0 0.0 0.9 4.5 4.8 5.7 3.5 1.3 0.2 0.2 0.7 4.8 7.2
0.0 0.0 0.0 0.0 0.0 0.0 0.0 0.0 0.0 0.0 0.0 0.0 11.8 23.9 0.0 26.2 19.5 1.2 1.6 1.6 1.9 2.5 0.0 0.0 0.8 0.4 0.5 2.2 1.3 2.6 1.3 1.3 0.0 0.0 0.0 0.0 2.3 1.2 0.2 0.8 6.1 4.1 0.7 0.6 1.9 0.9 3.0
0.0 0.0 0.0 0.0 0.0 0.0 0.0 0.0 0.0 0.0 0.0 0.0 47.7 13.9 1.4 0.9 0.2 3.7 3.1 2.5 0.6 1.8 2.7 2.2 1.6 0.2 0.9 2.0 1.7 1.6 1.8 1.4 1.1 0.0 0.0 0.0 3.6 0.7 0.2 0.2 2.6 2.9 0.5 0.3 0.6 1.3 2.9
0.0 0.0 0.0 0.0 0.0 0.0 0.0 0.0 0.0 0.0 0.0 0.0 0.0 0.0 0.0 2.7 4.6 9.1 5.3 2.3 1.9 0.3 0.0 0.1 0.0 3.0 2.7 1.2 0.0 0.0 0.0 0.0 0.0 0.4 1.0 2.0 5.5 7.5 5.3 0.2 5.6 8.3 7.3 4.9 2.4 2.1 2.4
0.0 0.0 0.0 0.0 0.0 0.0 0.0 0.0 0.0 0.0 0.0 0.0 0.0 0.0 13.5 18.4 3.8 3.6 0.4 0.2 1.5 1.6 1.9 0.0 0.0 3.0 0.0 0.0 0.0 0.0 0.0 0.0 0.0 0.0 0.0 1.9 5.8 12.1 8.7 6.1 23.3 7.3 4.8 5.9 8.6 5.6 6.7
0.0 0.0 0.0 0.0 0.0 0.0 0.0 0.0 0.0 0.0 0.0 0.0 0.0 0.0 4.3 22.7 4.6 6.6 3.8 3.1 1.8 2.3 4.4 2.5 0.0 0.0 0.0 0.0 6.4 10.5 9.8 4.4 2.1 0.0 0.0 0.0 2.4 16.4 22.5 17.4 4.5 1.4 0.0 0.8 2.2 2.6 1.9
0.0 0.0 0.0 0.0 0.0 0.0 0.0 0.0 0.0 0.0 0.0 0.0 0.0 0.0 0.5 19.5 11.6 0.0 4.0 3.5 5.2 5.6 5.6 4.4 0.0 0.0 0.0 7.6 12.1 23.4 17.9 3.6 4.0 3.2 0.0 0.0 0.3 10.6 24.0 26.7 12.2 1.8 0.0 0.0 0.7 5.1 2.5
0.0 0.0 0.0 0.0 0.0 0.0 0.0 0.0 0.0 0.0 0.0 0.0 0.0 0.0 0.0 33.6 0.0 0.0 1.8 3.9 0.0 2.0 4.5 4.2 1.0 0.0 0.0 12.1 14.0 17.6 9.8 0.6 5.1 5.5 3.9 3.8 8.8 13.9 9.7 23.5 6.0 0.0 0.0 0.0 7.2 8.8 0.5
0.0 0.0 0.0 0.0 0.0 0.0 0.0 0.0 0.0 0.0 0.0 0.0 0.0 0.0 0.0 24.4 6.7 0.0 0.0 1.1 1.2 0.7 5.4 5.9 8.6 11.3 10.1 12.2 13.7 18.7 14.3 5.6 3.2 3.4 7.4 3.8 9.5 11.0 12.3 18.2 14.0 0.0 0.0 2.4 2.7 0.6 0.6
0.0 0.0 0.0 0.0 0.0 0.0 0.0 0.0 0.0 0.0 0.0 0.0 0.0 0.0 0.0 2.3 8.7 0.0 0.0 0.0 0.0 0.0 0.0 0.1 1.7 2.5 2.4 9.1 9.2 8.5 16.3 11.0 6.5 7.2 0.0 10.0 4.3 8.7 6.7 8.1 2.0 0.3 1.5 1.2 0.6 0.3 0.5